Torna al catalogo

STARLINK-32573

AttivoComunicazioniVLEO
NORAD 61725·PAYLOAD·🇺🇸 United States

Lanciato Oct 30, 2024 da Cape Canaveral Space Force Station

Loading…

Prossimi Passaggi (prossime 24 ore)

TLE

AggiornatoSource: CelesTrak SupGP

Epoca: Sep 15, 2026, 03:30 UTC

1 61725C 24196U   26258.14631944  .00013773  00000+0  40691-3 0  2589
2 61725  53.1590 298.9339 0001447  85.6016  38.2588 15.34384519    19

Traccia STARLINK-32573 in tempo reale con AllMySat

Download on the App Store